Regional Weather Roundup
Issued by NWS

Home | Current Version | Previous Version | Graphics & Text | Print | Product List | Glossary On
Versions: 1 2 3 4 5 6 7 8 9 10 11 12 13 14 15 16 17 18 19 20 21 22 23 24 25 26 27 28 29 30 31 32 33 34 35 36 37 38 39 40 41 42 43 44 45 46 47 48 49 50
000
ASUS43 KLMK 201910
RWRKY
KENTUCKY REGIONAL WEATHER ROUNDUP
NATIONAL WEATHER SERVICE LOUISVILLE KY
200 PM EST SAT JAN 20 2018

NOTE "FAIR" INDICATES FEW OR NO CLOUDS BELOW 12,000 FEET
WITH NO SIGNIFICANT WEATHER AND/OR OBSTRUCTIONS TO VISIBILITY.

KYZ001>023-026-027-061>063-070>075-202000-
WESTERN AND SOUTH CENTRAL KENTUCKY

CITY           SKY/WX    TMP DP  RH WIND       PRES   REMARKS
PADUCAH        CLOUDY    46  28  49 SW7       30.10F
HENDERSON      CLOUDY    44  38  79 SW12      30.09F
OWENSBORO      CLOUDY    43  37  79 S6        30.11F
HOPKINSVILLE   CLOUDY    49  33  53 S10       30.12F
BOWLING GREEN  CLOUDY    50  33  52 SW12      30.16F
GLASGOW        CLOUDY    52  38  59 SW9       30.15F
$$

KYZ024-025-028>034-038-045-046-053-202000-
NORTH CENTRAL KENTUCKY

CITY           SKY/WX    TMP DP  RH WIND       PRES   REMARKS
LOUISVILLE/SDF PTSUNNY   53  32  44 SW9       30.10F
LOUISVILLE/LOU CLOUDY    49  32  52 SW13      30.11F
FORT KNOX      CLOUDY    47  35  62 SW15      30.13S
$$

KYZ035>037-039>044-047>052-055>060-089>105-202000-
NORTHEAST KENTUCKY

CITY           SKY/WX    TMP DP  RH WIND       PRES   REMARKS
LEXINGTON      CLOUDY    48  33  56 SW13      30.12F
COVINGTON      PTSUNNY   47  32  56 SW9       30.07F
FRANKFORT      PTSUNNY   49  31  49 SW15      30.09F
$$

KYZ054-064>069-076>088-106>120-202000-
SOUTHEAST KENTUCKY

CITY           SKY/WX    TMP DP  RH WIND       PRES   REMARKS
JACKSON        CLOUDY    53  37  54 CALM      30.13F
LONDON         CLOUDY    53  36  52 SW9       30.15F
SOMERSET       PTSUNNY   55  32  41 W12G18    30.16F
MIDDLESBORO    CLOUDY    49  30  48 S9        30.19F
MONTICELLO     MOCLDY    55  33  43 W18       30.18F
$$




USA.gov is the U.S. government's official web portal to all federal, state and local government web resources and services.